Погода в Новом Шаткине

Россия / Пензенская область     52°54′47″N   46°13′29″E
темп.,
°C
ветер,
м/с
пор.,
м/с
влажн.,
%
обл.,
%
осадки,
мм/ч
давл.,
гПа
погр.,
м
18 апреля, вс
вс1800:00+10зюз1283100 0.2 101942
03:00+9с3694100 1.3 1019229
06:00+8всв4876100 2.3 1018248
09:00+10всв346399 2.8 1018603
12:00+12всв3460100 0.1 1018887
15:00+9св2682100 1.7 1019367
18:00+8ссв4883100 0.5 1019245
21:00+9св41075100 0.6 1019309
19 апреля, пн
пн1900:00+8всв51272100 0.3 1019469
03:00+6всв81479100 0.8 1019458
06:00+5всв71583100 0.0 1019514
09:00+7всв81270100 0.0 1020671
12:00+7в61065100 0.1 1020953
15:00+7в51078100 0.8 1021886
18:00+7в61178100 0.7 10211003
21:00+6в71186100 0.8 1022871
20 апреля, вт
вт2000:00+4в71386100 0.1 1023684
03:00+3в71496100 0.4 1024603
06:00+3вюв8148399 0.3 1024699
09:00+5вюв9146496 0.3 1025797
12:00+7вюв91356100 0.0 1025950
15:00+9вюв91351100 0.0 10231271
18:00+7вюв91557100 0.0 10221049
21:00+6вюв101856100 0.0 10211002
21 апреля, ср
ср2100:00+5юв111959100 0.1 1020832
03:00+3юв102071100 0.6 1020837
06:00+2юв112287100 2.5 1018715
09:00+2юв112190100 4.8 1019697
12:00+2юв91894100 0.2 1020739
15:00+2юв81695100 0.6 1020651
18:00+2ююв81495100 0.3 1021559
21:00+3ююв71397100 0.3 1022479
22 апреля, чт
чт2200:00+3ююв51198100 0.1 1023345
03:00+3ююв4899100 0.1 1024239
06:00+4ююв4998100 0.0 1024238
09:00+7ююв5794100 0.0 1025311
12:00+12ююв676738 0.1 10251116
15:00+12ююв676488 0.7 10241258
18:00+10юв6108478 1.1 1025600
21:00+8ююв51188100 1.2 1026528